This is the latest recevied weather packets stored in our database for station/object K7CTM. If no packets are shown the sender has not sent any weather packets the latest 1 day(s).
| Time | Temp. | Humidity | Pressure | Rain* | Wind** | Luminosity | Snow |
|---|---|---|---|---|---|---|---|
| 1778043012 | 1.67° C | 54% | 1028.9 hPa | 0 mm | 1.79 m/s, 255° | 0 W/m² | - |
| 1778042710 | 2.22° C | 52% | 1028.9 hPa | 0 mm | 2.68 m/s, 251° | 0 W/m² | - |
| 1778042406 | 2.22° C | 52% | 1028.8 hPa | 0 mm | 2.68 m/s, 258° | 0 W/m² | - |
| 1778042103 | 3.33° C | 50% | 1029 hPa | 0 mm | 1.79 m/s, 257° | 0 W/m² | - |
| 1778041801 | 3.89° C | 47% | 1028.9 hPa | 0 mm | 0.89 m/s, 276° | 0 W/m² | - |
| 1778041501 | 3.89° C | 45% | 1029 hPa | 0 mm | 0.89 m/s, 286° | 0 W/m² | - |
| 1778041198 | 3.89° C | 45% | 1028.9 hPa | 0 mm | 0.89 m/s, 289° | 0 W/m² | - |
| 1778040896 | 3.89° C | 45% | 1028.9 hPa | 0 mm | 0.89 m/s, 281° | 0 W/m² | - |
| 1778040593 | 3.89° C | 46% | 1028.9 hPa | 0 mm | 1.34 m/s, 301° | 0 W/m² | - |
| 1778040291 | 3.89° C | 46% | 1028.9 hPa | 0 mm | 0.89 m/s, 305° | 0 W/m² | - |
| 1778039986 | 3.89° C | 47% | 1029.1 hPa | 0 mm | 0.89 m/s, 279° | 0 W/m² | - |
| 1778039683 | 3.89° C | 47% | 1029 hPa | 0 mm | 0.45 m/s, 284° | 0 W/m² | - |
| 1778039380 | 3.89° C | 46% | 1028.9 hPa | 0 mm | 0 m/s | 0 W/m² | - |
| 1778039078 | 3.89° C | 46% | 1028.8 hPa | 0 mm | 0 m/s | 0 W/m² | - |
| 1778038775 | 3.89° C | 46% | 1029 hPa | 0 mm | 0 m/s | 0 W/m² | - |
| 1778038472 | 4.44° C | 45% | 1028.8 hPa | 0 mm | 0 m/s | 0 W/m² | - |
| 1778038169 | 4.44° C | 45% | 1028.8 hPa | 0 mm | 0 m/s | 0 W/m² | - |
| 1778037866 | 4.44° C | 44% | 1028.7 hPa | 0 mm | 0 m/s | 0 W/m² | - |
| 1778037562 | 5° C | 44% | 1028.8 hPa | 0 mm | 0 m/s | 0 W/m² | - |
| 1778037260 | 5° C | 43% | 1028.6 hPa | 0 mm | 0 m/s | 0 W/m² | - |
| 1778036957 | 5° C | 43% | 1028.7 hPa | 0 mm | 0.45 m/s, 262° | 0 W/m² | - |
| 1778036655 | 5° C | 43% | 1028.7 hPa | 0 mm | 0 m/s | 0 W/m² | - |
| 1778036352 | 5° C | 43% | 1028.3 hPa | 0 mm | 0.45 m/s, 282° | 0 W/m² | - |
| 1778036049 | 5.56° C | 42% | 1028.2 hPa | 0 mm | 0 m/s | 0 W/m² | - |
| 1778035745 | 5.56° C | 41% | 1028.3 hPa | 0 mm | 1.34 m/s, 317° | 0 W/m² | - |
* Rain latest hour (hover to see other rain measurements)
** Current wind speed in m/s (hover to see current wind gust speed)